Connexion S'enregistrer

Connexion à votre compte

Identifiant
Mot de passe
Maintenir la connexion active sur ce site

Créer un compte

Pour valider ce formulaire, vous devez remplir tous les champs.
Nom
Identifiant
Mot de passe
Répétez le mot de passe
Adresse e-mail
Répétez l'adresse e-mail

Veuillez saisir l'adresse e-mail associée à votre compte d'utilisateur. Un code de vérification vous sera adressé. Lorsque vous le recevrez, vous pourrez choisir un nouveau mot de passe

Nous contacter

 Téléphone : +33 (0)4 79 54 41 81

Coordonnées détaillées et accès : cliquez ici

 
LFLB °C
    Ferienhaus Ostsee
[source: ADDS]
METAR
LFLB 262230Z AUTO VRB02KT CAVOK 17/14 Q1018 =
TAF
TAF LFLB 262300Z 2700/2724 VRB03KT CAVOK PROB30 TEMPO 2715/2722 VRB10G25KT 4000 SHRA FEW040CB SCT050TCU =
SR / SS: 03:53 / 19:13 UTC (Lever/Coucher du soleil le 2018-05-27)
JSN Boot template designed by JoomlaShine.com